�������l�o���
Date,Time,MP-1(��Sv/h),MP-2(��Sv/h),MP-3(��Sv/h),MP-4(��Sv/h),MP-5(��Sv/h),MP-6(��Sv/h),MP-7(��Sv/h),����,����(m/s),���J
2017/12/20,00:00,0.342,0.208,0.349,0.325,0.308,0.174,0.104,�k�k��,1.2,��
2017/12/20,00:10,0.341,0.208,0.348,0.325,0.307,0.174,0.104,�k,1.7,��
2017/12/20,00:20,0.342,0.209,0.348,0.326,0.308,0.174,0.104,�k�k��,1.7,��
2017/12/20,00:30,0.341,0.208,0.348,0.324,0.307,0.174,0.104,�k,3.7,��
2017/12/20,00:40,0.343,0.208,0.350,0.326,0.307,0.175,0.104,�k,5.4,��
2017/12/20,00:50,0.341,0.208,0.347,0.325,0.308,0.173,0.104,�k�k��,5.4,��
2017/12/20,01:00,0.342,0.208,0.350,0.325,0.309,0.175,0.105,�k,5.3,��
2017/12/20,01:10,0.341,0.209,0.350,0.325,0.308,0.174,0.104,�k,4.5,��
2017/12/20,01:20,0.343,0.209,0.349,0.325,0.307,0.175,0.103,�k�k��,4.2,��
2017/12/20,01:30,0.341,0.209,0.351,0.326,0.308,0.174,0.104,�k�k��,4.3,��
2017/12/20,01:40,0.342,0.207,0.349,0.326,0.308,0.174,0.103,�k�k��,4.0,��
2017/12/20,01:50,0.343,0.208,0.348,0.325,0.308,0.173,0.103,�k�k��,3.6,��
2017/12/20,02:00,0.340,0.208,0.348,0.325,0.308,0.174,0.104,�k�k��,4.1,��
2017/12/20,02:10,0.340,0.208,0.348,0.325,0.308,0.174,0.104,�k��,3.5,��
2017/12/20,02:20,0.340,0.207,0.349,0.326,0.307,0.174,0.103,�k��,2.8,��
2017/12/20,02:30,0.340,0.208,0.350,0.326,0.307,0.174,0.104,��,0.9,��
2017/12/20,02:40,0.341,0.207,0.349,0.324,0.307,0.174,0.104,-,CALM,��
2017/12/20,02:50,0.341,0.208,0.349,0.325,0.308,0.173,0.104,-,CALM,��
2017/12/20,03:00,0.341,0.207,0.348,0.325,0.307,0.174,0.104,��쐼,0.7,��
2017/12/20,03:10,0.340,0.208,0.349,0.326,0.306,0.174,0.104,-,CALM,��
2017/12/20,03:20,0.342,0.208,0.350,0.324,0.307,0.174,0.104,�k�k��,0.8,��
2017/12/20,03:30,0.341,0.208,0.348,0.326,0.307,0.174,0.103,�k�k��,0.9,��
2017/12/20,03:40,0.342,0.208,0.349,0.325,0.307,0.174,0.104,�k�k��,1.5,��
2017/12/20,03:50,0.341,0.208,0.349,0.326,0.308,0.175,0.104,�k,2.0,��
2017/12/20,04:00,0.340,0.208,0.349,0.324,0.308,0.174,0.104,�k�k��,1.5,��
2017/12/20,04:10,0.342,0.209,0.349,0.325,0.307,0.174,0.104,�k��,1.5,��
2017/12/20,04:20,0.341,0.208,0.349,0.326,0.308,0.174,0.105,�k�k��,1.8,��
2017/12/20,04:30,0.342,0.208,0.349,0.326,0.307,0.174,0.104,�k�k��,2.6,��
2017/12/20,04:40,0.341,0.209,0.348,0.326,0.308,0.174,0.104,�k�k��,3.1,��
2017/12/20,04:50,0.340,0.207,0.349,0.326,0.308,0.174,0.103,�k�k��,3.0,��
2017/12/20,05:00,0.343,0.208,0.348,0.325,0.307,0.174,0.103,�k�k��,2.9,��
2017/12/20,05:10,0.341,0.208,0.349,0.326,0.308,0.174,0.103,�k�k��,1.6,��
2017/12/20,05:20,0.341,0.208,0.348,0.325,0.307,0.173,0.104,�k��,1.6,��
2017/12/20,05:30,0.342,0.208,0.349,0.325,0.308,0.174,0.104,�k��,1.9,��
2017/12/20,05:40,0.342,0.208,0.348,0.326,0.307,0.174,0.103,�k��,1.7,��
2017/12/20,05:50,0.341,0.208,0.350,0.326,0.307,0.173,0.104,�k��,2.1,��
2017/12/20,06:00,0.339,0.208,0.348,0.324,0.306,0.173,0.104,�k,4.1,��
2017/12/20,06:10,0.342,0.207,0.348,0.325,0.307,0.173,0.103,�k�k��,5.4,��
2017/12/20,06:20,0.340,0.208,0.349,0.324,0.306,0.174,0.104,�k�k��,5.4,��
2017/12/20,06:30,0.341,0.208,0.349,0.324,0.307,0.173,0.104,�k�k��,7.0,��
2017/12/20,06:40,0.340,0.208,0.349,0.325,0.307,0.174,0.104,�k�k��,7.7,��
2017/12/20,06:50,0.341,0.208,0.349,0.327,0.306,0.173,0.103,�k�k��,6.3,��
2017/12/20,07:00,0.341,0.209,0.348,0.324,0.307,0.174,0.103,�k��,1.2,��
2017/12/20,07:10,0.342,0.208,0.349,0.326,0.306,0.174,0.104,�k,3.5,��
2017/12/20,07:20,0.341,0.208,0.349,0.325,0.307,0.174,0.105,�k�k��,4.1,��
2017/12/20,07:30,0.340,0.208,0.348,0.324,0.307,0.173,0.103,�k�k��,6.5,��
2017/12/20,07:40,0.341,0.208,0.348,0.323,0.307,0.173,0.103,�k�k��,6.2,��
2017/12/20,07:50,0.340,0.207,0.347,0.325,0.307,0.173,0.103,�k��,5.3,��
2017/12/20,08:00,0.341,0.208,0.349,0.325,0.306,0.173,0.103,�k��,4.9,��
2017/12/20,08:10,0.341,0.208,0.350,0.323,0.307,0.173,0.103,�k��,4.1,��
2017/12/20,08:20,0.342,0.207,0.348,0.323,0.308,0.174,0.103,�k��,4.2,��
2017/12/20,08:30,0.342,0.208,0.349,0.323,0.307,0.173,0.104,�k�k��,4.8,��
2017/12/20,08:40,0.341,0.208,0.348,0.324,0.306,0.173,0.103,�k,5.2,��
2017/12/20,08:50,0.341,0.207,0.348,0.325,0.308,0.174,0.104,�k,3.9,��
2017/12/20,09:00,0.341,0.207,0.349,0.322,0.309,0.173,0.104,�k,3.3,��
2017/12/20,09:10,0.341,0.208,0.348,0.324,0.307,0.173,0.103,�k�k��,2.6,��
2017/12/20,09:20,0.343,0.207,0.348,0.324,0.308,0.173,0.103,�k,1.0,��
2017/12/20,09:30,0.341,0.208,0.347,0.324,0.307,0.170,0.103,�k�k��,0.9,��
2017/12/20,09:40,0.341,0.207,0.347,0.325,0.307,0.171,0.103,�k�k��,1.2,��
2017/12/20,09:50,0.341,0.208,0.348,0.325,0.307,-,0.104,��,0.7,��
2017/12/20,10:00,0.342,0.207,0.349,0.324,0.307,-,0.103,�k��,1.3,��
2017/12/20,10:10,0.341,0.207,0.349,0.325,0.309,-,0.104,��,1.6,��
2017/12/20,10:20,0.339,0.208,0.348,0.322,0.306,-,0.104,-,CALM,��
2017/12/20,10:30,0.340,0.208,0.347,0.324,0.308,-,0.104,�k�k��,0.8,��
2017/12/20,10:40,0.338,0.207,0.349,0.325,0.308,-,0.104,�k��,1.6,��
2017/12/20,10:50,0.339,0.207,0.348,0.323,0.307,-,0.103,���k��,0.8,��
2017/12/20,11:00,0.340,0.207,0.347,0.324,0.308,-,0.104,�k��,1.2,��
2017/12/20,11:10,0.339,0.208,0.348,0.325,0.308,-,0.104,�k��,1.7,��
2017/12/20,11:20,0.340,0.208,0.349,0.325,0.308,-,0.104,��,1.5,��
2017/12/20,11:30,0.339,0.207,0.347,0.325,0.306,-,0.103,���k��,1.5,��
2017/12/20,11:40,0.338,0.208,0.346,0.324,0.308,-,0.103,��쓌,1.1,��
2017/12/20,11:50,0.341,0.207,0.347,0.324,0.305,-,0.104,��,2.4,��
2017/12/20,12:00,0.338,0.208,0.345,0.325,0.307,-,0.103,��쐼,2.0,��
2017/12/20,12:10,0.341,0.208,0.345,0.324,0.308,-,0.104,�쐼,1.6,��
2017/12/20,12:20,0.337,0.206,0.346,0.325,0.309,-,0.102,��,2.4,��
2017/12/20,12:30,0.340,0.207,0.346,0.322,0.306,-,0.104,��쓌,2.5,��
2017/12/20,12:40,0.337,0.208,0.349,0.325,0.306,-,0.104,��쓌,2.1,��
2017/12/20,12:50,0.340,0.207,0.348,0.323,0.308,-,0.104,��,3.9,��
2017/12/20,13:00,0.340,0.207,0.349,0.325,0.307,-,0.104,��쓌,4.6,��
2017/12/20,13:10,0.340,0.207,0.348,0.325,0.309,-,0.104,�쓌,3.1,��
2017/12/20,13:20,0.341,0.207,0.346,0.324,0.310,-,0.104,�쓌,5.2,��
2017/12/20,13:30,0.340,0.209,0.349,0.328,0.309,-,0.104,��쓌,4.3,��
2017/12/20,13:40,0.341,0.207,0.348,0.327,0.310,-,0.104,��쓌,4.4,��
2017/12/20,13:50,0.340,0.208,0.348,0.325,0.308,-,0.105,��쓌,3.9,��
2017/12/20,14:00,0.339,0.207,0.349,0.326,0.308,-,0.104,��쓌,4.9,��
2017/12/20,14:10,0.341,0.207,0.348,0.324,0.308,-,0.103,�쓌,3.1,��
2017/12/20,14:20,0.343,0.207,0.347,0.324,0.306,-,0.104,���쓌,2.5,��
2017/12/20,14:30,0.341,0.208,0.348,0.327,0.310,-,0.104,�쓌,3.8,��
2017/12/20,14:40,0.341,0.208,0.348,0.325,0.308,-,0.104,�쓌,3.3,��
2017/12/20,14:50,0.341,0.208,0.346,0.326,0.307,-,0.103,��쓌,3.7,��
2017/12/20,15:00,0.340,0.208,0.347,0.324,0.310,-,0.104,��쓌,5.3,��
2017/12/20,15:10,0.340,0.207,0.347,0.324,0.309,-,0.104,��,4.8,��
2017/12/20,15:20,0.341,0.209,0.348,0.325,0.309,0.169,0.103,��쓌,1.6,��
2017/12/20,15:30,0.340,0.208,0.349,0.326,0.309,0.170,0.103,�쓌,2.1,��
2017/12/20,15:40,0.340,0.207,0.348,0.325,0.308,0.171,0.104,��,0.8,��
2017/12/20,15:50,0.341,0.208,0.347,0.325,0.308,0.173,0.105,��,1.7,��
2017/12/20,16:00,0.341,0.208,0.348,0.325,0.307,0.172,0.104,��쓌,0.8,��
2017/12/20,16:10,0.339,0.208,0.348,0.326,0.307,0.171,0.104,��,2.6,��
2017/12/20,16:20,0.341,0.208,0.348,0.324,0.308,0.172,0.104,��,4.9,��
2017/12/20,16:30,0.341,0.208,0.347,0.326,0.308,0.171,0.104,��,3.8,��
2017/12/20,16:40,0.341,0.207,0.348,0.326,0.308,0.171,0.103,��쐼,2.7,��
2017/12/20,16:50,0.340,0.207,0.348,0.325,0.307,0.171,0.104,��쐼,4.0,��
2017/12/20,17:00,0.340,0.208,0.348,0.325,0.308,0.171,0.104,��쐼,4.3,��
2017/12/20,17:10,0.341,0.208,0.348,0.325,0.307,0.172,0.103,��쐼,2.5,��
2017/12/20,17:20,0.341,0.208,0.348,0.326,0.306,0.171,0.104,��쐼,1.4,��
2017/12/20,17:30,0.340,0.208,0.349,0.325,0.308,0.171,0.104,��쐼,3.9,��
2017/12/20,17:40,0.340,0.207,0.348,0.325,0.309,0.171,0.103,��쐼,4.9,��
2017/12/20,17:50,0.341,0.208,0.347,0.325,0.308,0.171,0.104,��쐼,5.0,��
2017/12/20,18:00,0.341,0.209,0.348,0.327,0.308,0.171,0.105,�쐼,5.0,��
2017/12/20,18:10,0.342,0.208,0.349,0.326,0.307,0.170,0.104,�쐼,5.3,��
2017/12/20,18:20,0.342,0.207,0.349,0.325,0.307,0.171,0.104,�쐼,5.0,��
2017/12/20,18:30,0.341,0.208,0.347,0.325,0.307,0.172,0.104,�쐼,5.6,��
2017/12/20,18:40,0.342,0.208,0.346,0.326,0.306,0.170,0.103,�쐼,4.0,��
2017/12/20,18:50,0.340,0.207,0.349,0.327,0.307,0.171,0.104,�쐼,5.4,��
2017/12/20,19:00,0.342,0.207,0.349,0.327,0.306,0.171,0.104,�쐼,5.7,��
2017/12/20,19:10,0.341,0.207,0.349,0.326,0.307,0.171,0.104,�쐼,5.4,��
2017/12/20,19:20,0.341,0.207,0.348,0.326,0.309,0.170,0.103,�쐼,6.2,��
2017/12/20,19:30,0.339,0.209,0.348,0.325,0.307,0.171,0.104,�쐼,5.5,��
2017/12/20,19:40,0.340,0.208,0.348,0.326,0.307,0.172,0.104,�쐼,5.9,��
2017/12/20,19:50,0.342,0.208,0.348,0.326,0.310,0.170,0.104,��쐼,4.9,��
2017/12/20,20:00,0.341,0.208,0.349,0.325,0.307,0.171,0.104,�쐼,4.5,��
2017/12/20,20:10,0.341,0.207,0.348,0.326,0.307,0.171,0.104,���쐼,3.1,��
2017/12/20,20:20,0.341,0.208,0.349,0.326,0.309,0.171,0.104,��,3.2,��
2017/12/20,20:30,0.342,0.209,0.348,0.325,0.308,0.172,0.104,���쐼,3.3,��
2017/12/20,20:40,0.342,0.207,0.348,0.326,0.308,0.171,0.105,���쐼,3.4,��
2017/12/20,20:50,0.340,0.208,0.349,0.326,0.308,0.171,0.104,���쐼,3.0,��
2017/12/20,21:00,0.341,0.208,0.348,0.325,0.307,0.170,0.104,�쐼,3.4,��
2017/12/20,21:10,0.340,0.209,0.348,0.325,0.307,0.171,0.104,���쐼,3.6,��
2017/12/20,21:20,0.342,0.208,0.349,0.325,0.308,0.171,0.104,���쐼,3.0,��
2017/12/20,21:30,0.341,0.207,0.349,0.325,0.307,0.172,0.104,�쐼,2.6,��
2017/12/20,21:40,0.341,0.208,0.348,0.325,0.307,0.171,0.104,�쐼,3.3,��
2017/12/20,21:50,0.340,0.208,0.350,0.326,0.308,0.171,0.104,��쐼,2.2,��
2017/12/20,22:00,0.342,0.208,0.349,0.325,0.306,0.170,0.104,�쐼,2.2,��
2017/12/20,22:10,0.340,0.209,0.348,0.325,0.309,0.171,0.104,�쐼,1.2,��
2017/12/20,22:20,0.342,0.208,0.348,0.326,0.308,0.172,0.104,���k��,0.9,��
2017/12/20,22:30,0.341,0.207,0.347,0.326,0.308,0.170,0.104,��,1.8,��
2017/12/20,22:40,0.342,0.208,0.349,0.325,0.308,0.171,0.103,���k��,1.5,��
2017/12/20,22:50,0.341,0.209,0.349,0.325,0.307,0.172,0.104,��,0.9,��
2017/12/20,23:00,0.342,0.209,0.348,0.325,0.308,0.172,0.104,���k��,1.5,��
2017/12/20,23:10,0.341,0.208,0.347,0.325,0.308,0.171,0.105,�k�k��,2.0,��
2017/12/20,23:20,0.342,0.209,0.348,0.325,0.308,0.172,0.104,�k��,3.0,��
2017/12/20,23:30,0.342,0.208,0.350,0.326,0.309,0.172,0.104,���k��,2.9,��
2017/12/20,23:40,0.343,0.209,0.349,0.326,0.308,0.172,0.105,�k��,1.7,��
2017/12/20,23:50,0.340,0.208,0.349,0.326,0.306,0.172,0.105,�k,1.4,��
